User: anonymous   Login
Location: Unspecified
(0.0000°N, 0.0000°E)
Time: 22:25:07
(UTC+00:00)
Language:

STARLINK-30416 - Orbit

View from above orbital plane
View from above orbital plane
View from above satellite
View from above satellite

Ground track
Ground track

The orbit is defined by the following mean orbital elements,

1 57847U          26145.66130689 +.00000000 +00000-0 +14710-3 0 00007
2 57847  53.1603 286.4926 0001205  83.0956 277.0182 15.31702881    00
Epoch (UTC): 25 May 2026 15:52:16
Eccentricity: 0.0001205
inclination: 53.1603°
perigee height: 470 km
apogee height: 472 km
right ascension of ascending node: 286.4926°
argument of perigee: 83.0956°
revolutions per day: 15.31702881
mean anomaly at epoch: 277.0182°

The dashed part of the orbit path shows where the satellite is in the earth's shadow,  

DLR